TimeEDT,TemperatureF,Dew PointF,Humidity,Sea Level PressureIn,VisibilityMPH,Wind Direction,Wind SpeedMPH,Gust SpeedMPH,PrecipitationIn,Events,Conditions,WindDirDegrees,DateUTC
12:33 AM,55.4,51.8,88,30.13,10.0,NNE,6.9,-,N/A,,Overcast,30,2012-10-08 04:33:00
12:53 AM,55.0,51.1,86,30.12,10.0,NNE,8.1,-,N/A,,Overcast,20,2012-10-08 04:53:00
1:17 AM,55.4,51.8,88,30.13,10.0,North,10.4,-,N/A,,Overcast,360,2012-10-08 05:17:00
1:53 AM,55.0,50.0,83,30.12,10.0,NNE,9.2,-,N/A,,Overcast,20,2012-10-08 05:53:00
2:53 AM,55.0,50.0,83,30.11,10.0,North,12.7,-,N/A,,Overcast,360,2012-10-08 06:53:00
3:53 AM,54.0,48.9,83,30.10,10.0,NNE,10.4,-,N/A,,Overcast,20,2012-10-08 07:53:00
4:53 AM,54.0,48.9,83,30.10,10.0,NNE,9.2,-,N/A,,Overcast,30,2012-10-08 08:53:00
5:53 AM,54.0,48.9,83,30.12,10.0,NE,6.9,-,N/A,,Overcast,40,2012-10-08 09:53:00
6:53 AM,54.0,48.0,80,30.13,10.0,NE,9.2,-,N/A,,Overcast,40,2012-10-08 10:53:00
7:53 AM,54.0,48.0,80,30.16,10.0,NE,9.2,-,N/A,,Overcast,50,2012-10-08 11:53:00
8:53 AM,54.0,46.0,75,30.17,10.0,NE,8.1,-,N/A,,Overcast,40,2012-10-08 12:53:00
9:19 AM,53.6,46.4,77,30.19,10.0,NNE,6.9,-,0.00,Rain,Light Rain,20,2012-10-08 13:19:00
9:53 AM,54.0,46.9,77,30.17,10.0,NE,11.5,-,0.00,,Overcast,40,2012-10-08 13:53:00
10:53 AM,54.0,48.0,80,30.16,10.0,NNE,11.5,-,N/A,,Overcast,30,2012-10-08 14:53:00
11:53 AM,53.1,48.9,86,30.15,10.0,NNE,8.1,-,0.00,,Overcast,30,2012-10-08 15:53:00
12:05 PM,53.6,48.2,82,30.16,10.0,NNE,9.2,-,N/A,,Overcast,30,2012-10-08 16:05:00
12:42 PM,51.8,51.8,100,30.15,2.0,NNE,10.4,-,0.00,Rain,Light Rain,30,2012-10-08 16:42:00
12:49 PM,51.8,51.8,100,30.15,1.5,NNE,10.4,-,0.01,Rain,Light Rain,20,2012-10-08 16:49:00
1:07 PM,51.8,50.0,94,30.14,1.5,NNE,13.8,-,0.01,,Overcast,20,2012-10-08 17:07:00
1:28 PM,51.8,50.0,94,30.14,2.5,North,11.5,-,0.01,,Overcast,360,2012-10-08 17:28:00
1:38 PM,51.8,50.0,94,30.13,4.0,NNE,11.5,-,0.01,,Overcast,20,2012-10-08 17:38:00
1:53 PM,51.1,50.0,96,30.12,2.5,North,9.2,-,0.02,Rain,Light Rain,10,2012-10-08 17:53:00
2:04 PM,51.8,48.2,88,30.13,5.0,NNE,12.7,21.9,0.00,,Overcast,20,2012-10-08 18:04:00
2:14 PM,50.0,48.2,94,30.15,1.8,NW,9.2,-,0.05,Rain,Heavy Rain,320,2012-10-08 18:14:00
2:16 PM,50.0,48.2,94,30.14,1.5,NNW,6.9,-,0.07,Rain,Heavy Rain,340,2012-10-08 18:16:00
2:32 PM,50.0,48.2,94,30.12,3.0,North,10.4,-,0.13,Rain,Light Rain,360,2012-10-08 18:32:00
2:53 PM,51.1,48.9,92,30.10,4.0,North,12.7,-,0.15,Rain,Light Rain,10,2012-10-08 18:53:00
3:00 PM,50.0,48.2,94,30.12,1.8,North,12.7,-,0.06,Rain,Rain,360,2012-10-08 19:00:00
3:27 PM,50.0,48.2,94,30.12,3.0,North,8.1,-,0.31,Rain,Light Rain,360,2012-10-08 19:27:00
3:53 PM,50.0,48.0,93,30.11,10.0,North,13.8,-,0.31,,Overcast,360,2012-10-08 19:53:00
4:53 PM,50.0,48.0,93,30.08,8.0,NNE,13.8,19.6,0.01,Rain,Light Rain,30,2012-10-08 20:53:00
5:21 PM,50.0,48.2,94,30.10,1.8,NNE,16.1,-,0.11,Rain,Heavy Rain,20,2012-10-08 21:21:00
5:32 PM,50.0,48.2,94,30.10,2.0,NNE,13.8,-,0.16,Rain,Light Rain,30,2012-10-08 21:32:00
5:36 PM,50.0,48.2,94,30.10,3.0,NNE,13.8,-,0.17,Rain,Light Rain,20,2012-10-08 21:36:00
5:53 PM,50.0,48.9,96,30.10,6.0,North,11.5,-,0.19,Rain,Light Rain,10,2012-10-08 21:53:00
6:53 PM,51.1,50.0,96,30.10,2.5,NNE,10.4,-,0.10,Rain,Rain,20,2012-10-08 22:53:00
7:02 PM,51.8,48.2,88,30.11,1.0,North,11.5,-,0.15,Rain,Heavy Rain,360,2012-10-08 23:02:00
8:53 PM,51.1,50.0,96,30.10,10.0,North,11.5,-,N/A,,Overcast,10,2012-10-09 00:53:00
9:53 PM,51.1,50.0,96,30.11,10.0,North,9.2,-,0.00,,Overcast,360,2012-10-09 01:53:00
10:53 PM,52.0,50.0,93,30.11,7.0,North,9.2,-,N/A,,Overcast,360,2012-10-09 02:53:00
11:53 PM,51.1,50.0,96,30.11,5.0,North,10.4,-,N/A,,Overcast,10,2012-10-09 03:53:00